RH
85 83 83 85 85 86 86 85 86 85 84 81 81 79 80 81 81 51 48 29 38 72 63 21 18 16 14 12 13 12 10 11 18 21 30 27 27 22 21 31 33 32 38 47 57
79 81 80 85 86 87 86 86 86 86 85 83 81 80 82 82 61 45 38 65 72 75 14 13 13 14 14 13 14 13 12 14 14 18 19 17 17 23 30 33 33 41 45 52 52
82 82 82 84 86 87 87 86 86 86 85 81 81 81 83 74 52 23 66 69 75 61 10 10 11 15 14 13 14 13 12 10 12 16 14 14 15 18 24 32 27 45 53 62 58
84 84 84 83 83 86 86 86 85 86 84 81 79 79 80 63 23 14 82 78 78 27 13 12 13 16 13 15 12 15 11 10 6 5 13 15 16 22 19 18 22 41 52 60 64
87 87 85 82 82 86 86 86 86 85 83 80 78 77 64 48 26 28 80 72 32 17 13 14 14 13 12 13 13 14 11 9 6 8 14 17 22 22 19 25 32 43 49 53 52
86 87 88 84 83 84 87 87 86 86 81 79 78 79 64 34 15 25 36 33 20 15 14 13 12 12 13 14 12 11 8 7 8 11 11 18 19 15 17 29 36 44 43 45 48
84 87 89 86 86 87 86 86 88 82 79 77 76 68 66 26 16 23 24 21 15 13 15 15 13 13 14 14 9 9 8 8 10 10 10 8 11 20 26 31 39 38 38 40 40
80 88 89 88 87 88 85 88 86 80 78 77 80 73 42 23 18 21 18 19 18 16 14 15 15 15 14 11 9 9 8 10 12 9 11 9 11 21 28 27 32 36 41 42 39
80 88 88 89 88 87 88 86 82 76 75 82 76 72 27 30 19 12 16 10 16 19 19 14 16 16 13 11 11 11 10 10 12 15 10 8 11 24 30 26 29 33 36 36 39
84 89 88 88 89 89 83 82 81 82 78 70 67 70 27 15 15 12 9 10 13 18 19 17 14 14 13 10 14 12 10 8 10 17 11 14 22 25 32 29 29 29 32 35 36
83 89 90 90 92 88 79 68 66 66 77 31 25 29 16 14 15 9 10 12 13 14 15 16 13 13 13 11 10 10 11 10 14 23 23 24 24 27 32 33 36 33 33 33 37
89 91 91 92 92 87 70 57 38 43 31 40 37 32 23 20 16 10 13 11 13 11 16 16 17 17 18 14 13 12 12 16 21 24 22 24 30 31 31 36 34 34 35 38 45
92 91 91 94 90 81 70 54 43 44 41 31 32 22 18 19 13 11 14 15 14 11 17 13 20 20 16 16 16 18 16 22 16 24 22 23 29 32 39 38 40 37 36 39 44
93 92 94 92 80 57 57 39 39 52 27 21 19 18 16 15 17 16 16 14 18 17 18 20 20 18 18 19 21 19 21 20 24 22 20 23 21 34 37 43 41 43 42 44 48
93 93 95 85 64 54 48 53 55 48 44 18 16 13 16 16 17 19 18 16 16 20 22 25 20 20 19 23 24 25 24 22 22 20 23 24 20 32 37 42 44 44 45 46 46
92 93 94 85 77 62 56 53 47 51 37 21 16 18 19 20 20 19 19 18 19 21 20 22 20 20 22 25 23 26 25 24 24 23 32 21 23 20 34 32 40 41 41 41 40
93 93 92 63 49 65 72 48 42 45 23 20 19 18 19 22 24 22 22 22 19 27 26 22 23 20 21 25 26 24 24 29 29 36 35 31 28 19 21 28 34 40 36 38 36
94 93 92 66 55 74 52 33 37 23 22 19 18 20 22 22 26 25 25 23 24 22 22 20 31 21 22 22 21 25 23 28 35 41 22 32 26 16 24 24 29 31 31 33 32
95 90 86 70 74 76 46 66 32 26 20 21 21 22 26 25 23 26 26 24 25 25 20 24 26 22 24 22 21 27 29 27 40 46 42 22 24 23 26 26 29 29 30 31 31
79 84 59 64 72 66 54 45 25 28 26 22 21 21 26 25 22 24 28 28 29 28 28 27 30 25 24 23 25 24 24 33 36 49 41 24 30 22 32 30 30 30 32 30 30
65 56 65 71 67 47 53 33 29 32 32 25 21 25 22 29 24 23 24 31 30 28 24 22 26 32 28 26 23 28 26 28 28 40 32 28 16 26 27 28 32 31 31 30 33
60 54 68 64 50 35 36 28 47 33 32 29 25 24 26 29 28 28 27 29 37 29 29 28 32 44 28 26 26 24 23 21 30 31 45 53 21 26 32 30 27 29 30 30 34
51 54 60 54 54 70 37 30 34 30 27 31 29 29 34 34 39 36 36 41 38 34 32 32 36 43 34 29 26 27 25 23 32 44 41 67 20 25 31 33 30 30 28 34 37
44 74 63 40 33 33 33 31 27 34 30 31 36 37 39 40 43 46 45 42 42 39 72 45 36 36 39 26 26 34 30 25 22 37 28 34 15 18 22 27 28 32 30 35 40
51 48 39 74 46 31 29 26 25 34 32 31 36 33 36 50 46 48 44 41 44 65 45 36 41 36 34 35 31 26 26 28 25 25 33 17 20 14 17 19 23 31 35 36 40
54 50 49 40 38 32 39 28 23 31 33 31 32 37 37 45 35 47 41 38 37 46 42 43 50 47 49 40 35 35 25 25 26 24 26 20 23 16 20 26 30 36 38 38 39
54 47 36 72 41 36 35 28 25 35 46 36 32 40 44 44 44 41 42 40 37 43 51 51 62 48 42 47 45 72 40 25 24 24 27 30 22 25 30 32 31 34 38 38 37
Wind_Speed
10 10 11 11 12 11 13 12 11 8 9 10 10 11 12 14 15 11 13 10 10 5 12 12 12 11 8 8 5 3 7 7 9 12 12 13 8 5 3 5 8 4 4 14 19
10 12 12 11 12 12 12 13 11 8 9 8 9 10 10 12 16 15 13 7 4 14 13 15 13 12 8 8 7 8 7 5 11 13 10 12 15 13 9 11 7 8 12 20 19
11 10 12 12 12 13 12 12 10 8 7 9 8 9 9 12 8 4 6 16 18 14 9 7 9 10 9 8 9 8 7 5 3 6 8 6 11 9 9 13 8 13 22 19 16
10 9 11 12 14 12 11 10 9 8 7 6 7 8 9 6 2 5 6 17 15 13 12 12 10 10 9 11 10 8 5 2 3 5 7 10 11 7 3 11 5 18 22 21 17
10 8 10 12 13 11 9 9 8 6 5 5 7 7 6 7 9 7 9 14 14 13 13 12 11 9 12 11 8 12 2 1 4 8 9 10 8 13 12 9 16 20 18 19 15
10 8 10 10 11 9 8 8 7 4 2 3 5 6 5 7 3 4 11 13 12 16 14 12 5 8 5 6 11 3 3 6 4 10 7 13 7 7 10 3 16 18 16 16 16
11 9 9 7 9 8 7 7 5 0 1 2 4 3 6 13 2 8 8 7 12 14 12 12 6 7 2 7 5 9 13 13 9 7 7 7 11 9 5 5 14 15 14 13 12
12 8 8 5 8 6 5 3 4 3 0 3 4 3 9 3 3 9 11 7 8 13 10 2 9 8 4 7 7 6 6 9 7 5 3 8 12 9 3 10 14 14 12 11 11
11 8 7 5 7 4 2 5 5 2 3 4 4 5 8 3 6 2 9 3 8 8 3 2 9 5 4 9 9 6 8 13 8 4 5 6 12 8 2 8 11 11 12 11 11
8 7 6 6 7 5 7 3 5 5 4 4 3 5 9 0 3 1 5 6 4 14 7 6 5 7 6 10 10 9 10 14 13 4 6 8 8 6 4 9 11 11 11 11 11
8 7 6 7 6 11 10 6 5 6 7 6 2 5 5 9 4 4 1 5 6 6 4 5 6 9 12 5 4 7 8 13 9 6 6 6 8 5 6 8 9 10 12 12 11
8 7 6 7 12 11 4 5 5 5 5 15 9 10 9 5 4 3 2 4 3 4 5 6 5 4 5 5 6 6 10 9 6 4 3 8 8 6 4 5 6 10 10 11 11
7 6 6 10 12 6 9 12 2 10 5 5 8 5 3 7 2 2 3 2 1 3 1 7 8 4 7 8 9 6 6 10 7 7 4 10 8 7 5 7 7 6 7 9 12
8 8 9 16 6 5 8 8 12 7 5 6 5 4 5 3 3 3 3 2 3 3 4 6 4 5 8 6 3 7 3 9 13 12 8 7 5 8 9 8 9 10 10 11 13
10 10 15 17 3 6 5 4 7 4 6 7 6 4 3 5 5 3 3 3 4 5 6 4 7 7 6 4 1 4 11 10 8 7 6 10 9 12 9 12 13 13 13 13 14
11 12 15 8 3 9 9 3 5 5 4 7 6 7 8 2 2 2 3 4 3 4 6 6 2 2 4 5 2 13 11 7 3 3 7 2 8 8 12 16 16 16 14 14 14
12 14 17 6 2 4 5 6 5 7 3 7 10 7 7 5 4 2 6 8 6 9 8 7 4 5 5 11 8 7 11 5 7 6 8 2 7 12 7 8 18 20 17 17 16
12 12 11 10 3 6 4 6 7 3 8 2 6 8 9 4 3 3 8 8 2 4 9 10 7 6 3 3 6 9 7 4 5 6 6 3 7 2 0 9 15 19 18 18 17
14 5 5 9 16 3 5 6 7 5 5 8 8 13 6 5 3 5 3 5 2 2 4 6 4 4 3 2 3 6 7 4 3 0 5 6 6 9 7 10 15 20 19 19 18
8 6 8 9 13 8 6 8 4 3 3 6 13 10 12 9 8 7 8 3 4 1 3 4 5 2 5 3 7 4 8 4 3 4 6 4 7 7 9 14 18 20 20 19 18
7 7 8 12 9 6 9 8 4 5 5 8 8 6 9 8 6 8 7 4 3 4 0 5 2 6 3 6 6 6 5 1 1 3 4 3 1 4 1 11 19 21 20 19 18
7 8 8 9 9 6 11 6 3 4 4 6 4 4 10 9 8 8 9 2 3 4 5 2 2 4 6 4 2 3 3 7 4 5 1 3 4 3 1 4 12 18 18 17 17
8 6 4 7 10 6 4 6 4 4 5 7 7 2 2 7 5 5 5 2 3 5 5 6 4 5 6 6 5 7 6 3 5 1 6 3 2 3 3 6 10 13 14 14 15
8 9 6 6 4 14 12 11 9 2 2 2 4 3 6 4 0 7 7 3 3 2 2 3 3 5 7 1 1 7 11 11 8 4 4 9 9 7 7 8 9 12 14 17 17
6 8 11 10 10 13 14 12 14 5 3 4 3 5 6 5 4 5 5 6 4 4 3 4 5 4 1 1 3 4 8 13 15 12 8 7 11 7 6 8 8 9 12 15 17
6 6 4 14 14 12 10 11 15 7 5 6 6 7 6 5 6 10 9 7 4 6 5 1 3 2 4 2 2 6 10 11 15 14 15 16 19 12 6 5 8 11 14 16 16
3 1 9 3 11 14 9 12 13 10 1 2 5 7 4 3 5 9 7 8 5 5 6 4 6 4 3 1 2 6 15 17 11 11 12 12 11 4 6 9 10 12 14 16 16
Wind_Direction
293 299 299 301 301 298 297 293 289 292 293 296 301 307 316 318 310 259 246 244 194 135 191 147 168 189 194 189 214 243 232 205 155 124 128 131 158 162 140 183 200 124 76 125 151
292 297 301 303 304 301 298 291 288 288 290 290 305 309 319 323 290 258 239 163 176 160 170 171 169 177 191 190 191 232 241 188 142 130 154 155 204 166 181 177 171 107 113 132 145
287 298 300 304 304 298 295 293 298 292 290 304 307 312 323 313 280 246 136 189 199 199 187 178 170 191 202 186 188 192 250 51 138 193 215 205 138 162 190 189 162 145 141 139 148
280 294 296 305 301 296 296 296 292 292 295 306 313 319 323 273 315 46 321 171 179 204 204 186 182 188 195 194 195 229 253 283 67 216 214 167 139 152 57 48 94 138 142 144 156
281 293 297 301 298 296 293 290 290 289 301 316 316 333 294 239 256 62 109 136 160 182 203 197 198 201 197 200 182 236 219 330 165 182 145 145 126 118 59 82 114 137 150 149 149
279 288 292 297 294 290 287 286 289 296 301 319 317 302 267 255 73 136 125 149 173 185 205 209 231 233 237 205 218 141 122 124 127 113 98 127 100 156 55 49 122 143 150 151 157
280 283 285 291 288 283 283 281 295 98 57 304 283 272 253 256 55 161 167 184 199 206 210 221 225 219 300 158 146 133 114 115 123 138 105 121 106 53 12 153 138 148 148 151 148
278 282 283 289 288 291 283 308 94 80 33 258 273 249 260 207 302 235 235 244 208 211 234 246 223 251 270 129 143 162 170 130 67 147 120 249 118 62 43 162 153 146 147 147 156
277 276 281 278 269 266 136 102 94 93 238 236 199 268 263 270 240 247 188 185 146 180 205 144 177 211 170 180 161 185 164 137 122 40 160 294 127 55 118 162 150 151 151 144 148
271 268 271 254 249 160 115 101 125 200 221 211 228 250 241 45 321 332 189 175 145 131 141 174 190 197 192 205 176 168 139 164 151 107 144 123 104 93 113 166 161 155 157 160 159
264 257 249 241 199 137 139 139 191 193 228 238 18 295 288 324 235 188 195 164 158 207 211 189 202 205 185 228 49 128 136 133 118 108 108 118 114 102 123 157 166 165 167 166 159
242 241 238 228 151 144 223 235 287 351 238 222 257 273 270 287 253 171 253 239 234 265 174 177 135 120 121 133 134 147 155 137 111 126 213 157 112 105 125 136 175 175 174 163 154
227 214 217 149 138 152 231 231 317 342 266 168 207 245 280 201 228 195 311 137 333 248 248 175 112 147 136 131 136 122 185 166 181 159 191 172 149 156 112 128 138 148 154 164 160
208 195 176 134 186 170 231 257 248 238 231 148 201 188 174 224 173 356 14 301 161 117 95 74 103 137 124 122 290 168 162 149 153 182 191 214 199 176 164 147 156 151 154 148 147
184 185 170 184 70 210 44 291 161 203 197 152 153 106 159 205 121 112 39 226 163 143 246 95 134 140 125 64 166 77 143 138 163 206 211 192 258 113 176 183 172 163 152 150 149
177 178 169 229 247 255 299 268 189 230 223 160 162 173 173 137 94 115 156 82 99 97 85 98 79 12 88 59 167 146 139 129 167 216 240 257 266 177 185 207 177 172 171 163 160
175 179 179 175 223 351 267 205 197 217 125 167 171 180 181 150 131 188 171 153 183 159 157 149 96 110 166 117 139 222 183 183 225 209 249 77 254 265 203 200 182 177 171 167 163
173 179 209 227 230 342 243 203 204 203 195 113 179 159 193 167 120 143 164 159 133 246 168 190 174 181 140 274 205 197 239 229 240 221 261 173 242 254 274 179 183 180 170 169 171
138 187 243 229 226 253 265 202 200 209 170 175 169 188 159 153 223 183 182 153 132 271 213 177 115 126 53 162 248 153 219 38 145 60 267 256 235 238 178 188 190 181 174 178 180
151 193 225 174 165 175 232 217 209 204 198 194 186 212 187 175 189 214 192 140 142 214 310 157 144 175 136 175 69 293 123 183 211 238 244 197 273 264 188 189 189 184 186 186 184
163 207 115 145 165 196 207 202 203 207 212 194 187 169 200 174 202 191 186 143 192 131 216 167 225 146 201 213 195 154 186 76 348 298 284 294 263 44 273 189 193 193 193 189 187
186 206 143 170 182 206 198 190 179 164 160 206 225 164 187 179 179 190 193 295 141 176 186 129 134 173 194 111 327 285 201 200 242 174 95 327 290 133 170 236 202 200 197 194 191
186 162 133 226 185 175 157 171 221 167 182 184 178 194 167 171 184 190 175 86 180 203 177 171 190 158 166 173 188 228 189 177 112 127 204 191 267 167 200 216 215 220 192 198 191
180 174 147 199 260 176 179 185 191 184 185 177 134 136 143 159 123 168 159 142 140 155 45 189 182 245 234 46 265 193 194 197 209 202 206 238 268 202 217 224 200 210 196 197 190
218 187 166 175 190 183 189 175 191 160 208 196 142 196 170 153 162 173 162 148 141 153 148 229 229 205 159 100 216 257 223 200 213 230 230 274 252 275 253 236 224 197 194 195 190
189 178 173 156 160 169 180 190 192 161 194 178 206 152 172 182 198 185 169 190 175 165 178 151 183 178 206 201 251 257 240 230 230 245 256 267 271 274 254 257 202 198 195 199 197
153 208 175 150 173 178 185 181 199 158 127 4 147 140 160 81 62 61 79 75 99 173 158 155 146 164 230 5 268 281 239 223 223 224 243 251 269 159 210 228 225 210 206 207 203